Date String (YYYY-MM-DD hh:mm:ss) UTC,Instrument flags,Ambient pressure (hPa),Sample flow (lpm),Bypass flow (lpm),Sample temperature (°C),Ambient temperature (°C),ASC tube jacket temperature (°C),LED temperature (°C),Box temperature (°C),Sample RH (%),Span deviation,Mass concentration (μg/m³),Mass concentration (μg/m³),Mass concentration (μg/m³)
DateTimeUTC,F1_M11,P_M11,Q1_M11,Q2_M11,T1_M11,T2_M11,T3_M11,T4_M11,T5_M11,U1_M11,ZSPAN_M11,X0_M11,X2_M11,X1_M11
2021-12-13 11:00:00,,0824.9,5.01,0.00,24.0,23.2,00.0,33.1,25.7,05.9,0000.0,0002.27,0001.25,0000.96
2021-12-13 11:01:00,,0824.9,4.99,0.00,24.0,23.2,00.0,33.1,25.7,05.9,0000.0,0002.45,0001.23,0000.94
2021-12-13 11:02:00,,0824.9,5.01,0.00,24.0,23.2,00.0,33.1,25.7,05.9,0000.0,0002.52,0001.25,0000.93
2021-12-13 11:03:00,,0824.9,5.00,0.00,24.0,23.2,00.0,33.1,25.7,05.9,0000.0,0002.89,0001.22,0000.93
2021-12-13 11:04:00,,0824.9,5.01,0.00,24.0,23.2,00.0,33.1,25.7,05.9,0000.0,0004.16,0001.23,0000.91
2021-12-13 11:05:00,,0824.9,4.99,0.00,24.0,23.2,00.0,33.1,25.7,05.9,0000.0,0004.34,0001.27,0000.89
2021-12-13 11:06:00,,0824.9,5.01,0.00,24.0,23.2,00.0,33.1,25.6,05.9,0000.0,0004.40,0001.29,0000.88
2021-12-13 11:07:00,,0824.9,4.99,0.00,24.0,23.2,00.0,33.0,25.6,05.9,0000.0,0004.59,0001.32,0000.87
2021-12-13 11:08:00,,0825.0,5.00,0.00,24.0,23.2,00.0,33.0,25.6,05.9,0000.0,0004.78,0001.37,0000.86
2021-12-13 11:09:00,,0824.9,4.99,0.00,24.0,23.2,00.0,33.0,25.6,05.9,0000.0,0004.73,0001.35,0000.85
2021-12-13 11:10:00,,0824.9,5.00,0.00,23.9,23.1,00.0,33.0,25.6,05.9,0000.0,0004.95,0001.34,0000.83
2021-12-13 11:11:00,,0824.9,5.01,0.00,23.9,23.1,00.0,33.0,25.6,05.9,0000.0,0005.93,0001.35,0000.82
2021-12-13 11:12:00,,0824.9,4.99,0.00,23.9,23.1,00.0,33.0,25.6,05.9,0000.0,0005.85,0001.35,0000.82
2021-12-13 11:13:00,,0824.9,5.01,0.00,23.9,23.1,00.0,33.0,25.6,05.9,0000.0,0006.92,0001.34,0000.80
2021-12-13 11:14:00,,0824.9,4.99,0.00,23.9,23.1,00.0,33.0,25.5,05.9,0000.0,0007.33,0001.37,0000.80
2021-12-13 11:15:00,,0824.9,5.00,0.00,23.9,23.1,00.0,33.0,25.5,05.9,0000.0,0005.98,0001.37,0000.79
2021-12-13 11:16:00,,0824.9,5.01,0.00,23.9,23.1,00.0,33.0,25.5,05.9,0000.0,0005.91,0001.35,0000.79
2021-12-13 11:17:00,,0824.9,4.99,0.00,23.9,23.1,00.0,33.0,25.5,05.9,0000.0,0005.86,0001.33,0000.79
2021-12-13 11:18:00,,0824.9,5.00,0.00,23.9,23.1,00.0,32.9,25.5,05.8,0000.0,0005.79,0001.28,0000.77
2021-12-13 11:19:00,,0824.9,5.01,0.00,23.9,23.0,00.0,32.9,25.5,05.8,0000.0,0005.65,0001.22,0000.76
2021-12-13 11:20:00,,0824.9,4.98,0.00,23.9,23.0,00.0,32.9,25.5,05.8,0000.0,0005.64,0001.22,0000.76
2021-12-13 11:21:00,,0824.9,5.02,0.00,23.9,23.0,00.0,32.9,25.5,05.8,0000.0,0005.40,0001.23,0000.77
2021-12-13 11:22:00,,0824.9,4.99,0.00,23.8,23.0,00.0,32.9,25.5,05.8,0000.0,0004.32,0001.20,0000.76
2021-12-13 11:23:00,,0824.9,5.00,0.00,23.8,23.0,00.0,32.9,25.5,05.8,0000.0,0003.85,0001.15,0000.74
2021-12-13 11:24:00,,0824.9,5.01,0.00,23.8,23.0,00.0,32.9,25.5,05.8,0000.0,0002.68,0001.09,0000.72
2021-12-13 11:25:00,,0824.9,4.99,0.00,23.8,23.0,00.0,32.9,25.5,05.8,0000.0,0002.12,0001.04,0000.71
2021-12-13 11:26:00,,0824.9,5.01,0.00,23.8,23.0,00.0,32.9,25.4,05.8,0000.0,0002.00,0001.01,0000.69
2021-12-13 11:27:00,,0824.9,5.01,0.00,23.8,22.9,00.0,32.9,25.4,05.9,0000.0,0002.01,0001.01,0000.68
2021-12-13 11:28:00,,0824.9,5.00,0.00,23.8,22.9,00.0,32.9,25.4,05.8,0000.0,0002.11,0001.03,0000.67
2021-12-13 11:29:00,,0824.9,4.99,0.00,23.8,22.9,00.0,32.8,25.5,05.8,0000.0,0002.08,0001.03,0000.67
2021-12-13 11:30:00,,0824.8,5.00,0.00,23.8,22.9,00.0,32.8,25.4,05.8,0000.0,0002.03,0001.03,0000.66
2021-12-13 11:31:00,,0824.8,5.00,0.00,23.8,22.9,00.0,32.8,25.4,05.8,0000.0,0002.23,0001.05,0000.65
2021-12-13 11:32:00,,0824.7,5.01,0.00,23.7,22.9,00.0,32.8,25.5,05.8,0000.0,0002.90,0001.04,0000.63
2021-12-13 11:33:00,,0824.7,4.99,0.00,23.7,22.9,00.0,32.8,25.4,05.8,0000.0,0003.32,0001.02,0000.63
2021-12-13 11:34:00,,0824.7,5.00,0.00,23.7,22.9,00.0,32.8,25.4,05.8,0000.0,0003.40,0001.05,0000.64
2021-12-13 11:35:00,,0824.8,4.99,0.00,23.7,22.9,00.0,32.8,25.4,05.8,0000.0,0003.39,0001.04,0000.63
2021-12-13 11:36:00,,0824.8,5.00,0.00,23.7,22.9,00.0,32.8,25.4,05.9,0000.0,0003.48,0001.07,0000.64
2021-12-13 11:37:00,,0824.8,5.00,0.00,23.7,22.9,00.0,32.8,25.4,05.9,0000.0,0003.45,0001.10,0000.63
2021-12-13 11:38:00,,0824.8,5.01,0.00,23.7,22.8,00.0,32.8,25.3,05.9,0000.0,0003.47,0001.09,0000.63
2021-12-13 11:39:00,,0824.8,5.00,0.00,23.7,22.8,00.0,32.7,25.3,05.9,0000.0,0003.35,0001.07,0000.64
2021-12-13 11:40:00,,0824.7,4.99,0.00,23.7,22.8,00.0,32.7,25.3,05.9,0000.0,0003.29,0001.06,0000.63
2021-12-13 11:41:00,,0824.7,5.01,0.00,23.7,22.8,00.0,32.7,25.3,05.9,0000.0,0003.40,0001.08,0000.64
2021-12-13 11:42:00,,0824.7,5.00,0.00,23.6,22.8,00.0,32.7,25.3,05.9,0000.0,0003.37,0001.08,0000.64
2021-12-13 11:43:00,,0824.7,5.00,0.00,23.6,22.8,00.0,32.7,25.3,05.8,0000.0,0002.74,0001.06,0000.64
2021-12-13 11:44:00,,0824.7,5.00,0.00,23.6,22.8,00.0,32.7,25.2,05.8,0000.0,0002.22,0001.05,0000.63
2021-12-13 11:45:00,,0824.7,5.00,0.00,23.6,22.8,00.0,32.7,25.2,05.8,0000.0,0002.13,0001.03,0000.62
2021-12-13 11:46:00,,0824.7,5.00,0.00,23.6,22.8,00.0,32.7,25.2,05.9,0000.0,0002.05,0001.01,0000.62
2021-12-13 11:47:00,,0824.6,5.01,0.00,23.6,22.7,00.0,32.7,25.2,05.9,0000.0,0001.97,0001.01,0000.63
2021-12-13 11:48:00,,0824.6,4.99,0.00,23.6,22.7,00.0,32.6,25.1,06.0,0000.0,0002.32,0000.98,0000.62
2021-12-13 11:49:00,,0824.7,4.99,0.00,23.6,22.7,00.0,32.6,25.1,06.0,0000.0,0003.09,0000.97,0000.62
2021-12-13 11:50:00,,0824.7,5.01,0.00,23.6,22.7,00.0,32.6,25.1,06.0,0000.0,0003.14,0000.97,0000.61
2021-12-13 11:51:00,,0824.7,5.01,0.00,23.5,22.6,00.0,32.6,25.1,06.0,0000.0,0003.29,0000.99,0000.62
2021-12-13 11:52:00,,0824.7,5.01,0.00,23.5,22.6,00.0,32.6,25.1,06.0,0000.0,0003.44,0001.00,0000.62
2021-12-13 11:53:00,,0824.7,5.00,0.00,23.5,22.6,00.0,32.6,25.0,06.2,0000.0,0003.38,0000.99,0000.64
2021-12-13 11:54:00,,0824.6,5.01,0.00,23.5,22.6,00.0,32.6,25.1,06.2,0000.0,0003.85,0001.06,0000.66
2021-12-13 11:55:00,,0824.6,5.00,0.00,23.5,22.6,00.0,32.6,25.1,06.3,0000.0,0003.87,0001.06,0000.68
2021-12-13 11:56:00,,0824.6,4.99,0.00,23.5,22.6,00.0,32.6,25.0,06.2,0000.0,0003.90,0001.07,0000.70
2021-12-13 11:57:00,,0824.6,5.00,0.00,23.5,22.5,00.0,32.6,25.0,06.2,0000.0,0003.98,0001.11,0000.71
2021-12-13 11:58:00,,0824.6,5.01,0.00,23.4,22.5,00.0,32.5,25.0,06.3,0000.0,0004.22,0001.14,0000.73
2021-12-13 11:59:00,,0824.6,5.00,0.00,23.4,22.5,00.0,32.5,25.0,06.3,0000.0,0004.44,0001.20,0000.76
